Weather History for Ozark, AL

Change the Weather History Date:

Friday, December 21, 2012

  Actual Average Record
Temperature  
Mean Temperature 44 °F -  
Max Temperature 53 °F 58 °F 78 °F (1998)
Min Temperature 32 °F 36 °F 21 °F (1996)
Degree Days  
Heating Degree Days 20    
Growing Degree Days 0 (Base 50)    
Moisture  
Dew Point 18 °F    
Average Humidity 39    
Maximum Humidity 58    
Minimum Humidity 21    
Precipitation  
Precipitation 0.00 in - - ()
Sea Level Pressure  
Sea Level Pressure 30.20 in    
Wind  
Wind Speed 12 mph (WNW)    
Max Wind Speed 18 mph    
Max Gust Speed 29 mph    
Visibility 10 miles    
Events      
Averages and records for this station are not official NWS values.
T = Trace of Precipitation, MM = Missing Value Source: NWS Daily Summary

Daily Weather History Graph

Daily Weather History Graph

Search for Another Location

Airport:

Trip Planner

Search our weather history database for the weather conditions in past years. The results will help you decide how hot, cold, wet, or windy it might be!

Date:

Astronomy

Dec. 21, 2012 Rise Set
Actual Time 6:37 AM CST 4:44 PM CST
Civil Twilight 6:11 AM CST 5:11 PM CST
Nautical Twilight 5:40 AM CST 5:41 PM CST
Astronomical Twilight 5:11 AM CST 6:11 PM CST
Moon 12:17 PM CST (12/21) 12:39 AM CST (12/21)
Length of Visible Light 11h 00m
Length of Day
10h 06m
Waxing Gibbous, 65% of the Moon is Illuminated
Dec 21
Waxing Gibbous
Dec 28
Full
Jan 4
Last Quarter
Jan 11
New
Jan 18
First Quarter

Hourly Weather History & Observations

Time (CST) Temp. Windchill Dew Point Humidity Pressure Visibility Wind Dir Wind Speed Gust Speed Precip Events Conditions
12:55 AM 43.3 °F 36.8 °F 25.7 °F 50% 30.11 in 10.0 mi WNW 12.7 mph 20.7 mph N/A   Clear
1:55 AM 41.4 °F 34.7 °F 26.1 °F 55% 30.12 in 10.0 mi West 11.5 mph - N/A   Clear
2:55 AM 40.3 °F 33.9 °F 25.0 °F 54% 30.12 in 10.0 mi WNW 10.4 mph - N/A   Clear
3:55 AM 39.2 °F 32.5 °F 23.4 °F 53% 30.14 in 10.0 mi West 10.4 mph - N/A   Clear
4:55 AM 37.8 °F 31.8 °F 23.4 °F 56% 30.15 in 10.0 mi WNW 8.1 mph - N/A   Clear
5:55 AM 36.9 °F 30.1 °F 22.1 °F 55% 30.17 in 10.0 mi WNW 9.2 mph - N/A   Clear
6:55 AM 37.0 °F 29.8 °F 20.8 °F 52% 30.19 in 10.0 mi WNW 10.4 mph 19.6 mph N/A   Clear
7:55 AM 38.8 °F 31.2 °F 20.8 °F 48% 30.21 in 10.0 mi NW 12.7 mph - N/A   Clear
8:55 AM 41.7 °F 34.1 °F 19.9 °F 42% 30.22 in 10.0 mi WNW 15.0 mph - N/A   Clear
9:55 AM 45.3 °F 39.0 °F 17.8 °F 33% 30.23 in 10.0 mi NW 13.8 mph 21.9 mph N/A   Clear
10:55 AM 48.4 °F - 15.3 °F 27% 30.23 in 10.0 mi NW 18.4 mph 25.3 mph N/A   Clear
11:55 AM 50.7 °F - 13.8 °F 23% 30.20 in 10.0 mi NW 17.3 mph 28.8 mph N/A   Clear
12:55 PM 51.4 °F - 12.4 °F 21% 30.18 in 10.0 mi NW 17.3 mph 25.3 mph N/A   Clear
1:55 PM 53.1 °F - 14.4 °F 22% 30.17 in 10.0 mi WNW 18.4 mph 23.0 mph N/A   Clear
2:55 PM 52.2 °F - 13.3 °F 21% 30.17 in 10.0 mi WNW 10.4 mph 19.6 mph N/A   Clear
3:55 PM 51.3 °F - 13.5 °F 22% 30.17 in 10.0 mi WNW 10.4 mph - N/A   Clear
4:55 PM 46.9 °F - 15.1 °F 28% 30.20 in 10.0 mi WNW 8.1 mph - N/A   Clear
5:55 PM 43.3 °F 39.2 °F 17.1 °F 35% 30.23 in 10.0 mi West 6.9 mph - N/A   Clear
6:55 PM 42.4 °F 36.5 °F 15.8 °F 34% 30.25 in 10.0 mi WNW 10.4 mph - N/A   Clear
7:55 PM 42.4 °F 37.0 °F 13.5 °F 31% 30.27 in 10.0 mi WNW 9.2 mph - N/A   Clear
8:55 PM 39.6 °F 34.0 °F 15.4 °F 38% 30.28 in 10.0 mi West 8.1 mph - N/A   Clear
9:55 PM 37.8 °F 32.5 °F 15.6 °F 41% 30.29 in 10.0 mi WNW 6.9 mph - N/A   Clear
10:55 PM 37.9 °F 32.1 °F 15.3 °F 40% 30.29 in 10.0 mi WNW 8.1 mph - N/A   Clear
11:55 PM 32.0 °F 27.5 °F 18.9 °F 58% 30.29 in 10.0 mi West 4.6 mph - N/A   Clear